Location: Gez
(43.0167°N, 0.1000°W)
Time: 16:58:48
(UTC+00:00)

Terra - Pass Details

Date: 08 August 2025
Orbit: 687 x 692 km, 98.0° (Epoch: 19 April)

Event Time Altitude Azimuth Distance (km) Brightness Sun altitude
Exits shadow 20:18:23 15° 141° (SE) 1,850 3.4 -11.4°
Maximum altitude 20:22:05 46° 71° (ENE) 924 2.2 -11.9°
Drops below altitude 10° 20:26:35 10° 359° (N) 2,152 4.9 -12.6°
Enters shadow 21:25:24 -62° 170° (S) 11,990 8.0 -20.6°
